Preview of NWS' New Version of Forecast
This preview is not operational and should not be used for support decisions.

Regional Weather Roundup (RWR)

Issued by National Weather Service (NWS)

                            
000
ASCA42 TJSJ 180710
RWRPR 
PUERTO RICO/U.S. VIRGIN ISLANDS HOURLY WEATHER ROUNDUP
NATIONAL WEATHER SERVICE SAN JUAN PR
300 AM AST MON FEB 18 2019

PRZ001>002-007>008-010-180800-
PUERTO RICO
  
CITY           SKY/WX    TMP DP  RH WIND       PRES   REMARKS
SAN JUAN LMM   PTCLDY    75  70  83 E3        30.08F                  
CEIBA          PTCLDY    73  70  88 E5        30.10F                  
$$

VIZ001>002-180800-
U.S. VIRGIN ISLANDS
  
CITY           SKY/WX    TMP DP  RH WIND       PRES   REMARKS
CHARLOTTE AMA  PTCLDY    75  70  83 E8        30.08F                  
CHRISTIANSTED  PTCLDY    77  72  83 NE9       30.08F                  
$$

HOURLY WEATHER ROUNDUP FOR THE NEWS MEDIA
  
CITY           SKY/WX    TMP DP  RH WIND       PRES   REMARKS
ORLANDO        FAIR      70  63  78 S7        30.02S                  
NEW YORK       CLOUDY    33  33 100 E7        29.91  WCI  27          
NEWARK         LGT RAIN  35  33  92 VRB3      29.90F FOG              
CHICAGO        LGT SNOW  25  24  96 N8        29.98R FOG     WCI  16  
HARTFORD       LGT SNOW  30  26  85 NE9       29.97F FOG     WCI  22  
BOSTON         SNOW      29  26  89 S6        29.99F VSB 1/2 WCI  23  
DALLAS         MOCLDY    44  27  51 NE12      30.15R                  
PHILADELPHIA   CLOUDY    36  35  96 CALM      29.88                   
LOS ANGELES    PTCLDY    50  30  46 NW14G22   30.02R                  
WASHINGTON DC  LGT RAIN  36  34  92 S9        29.80F WCI  29